Miscellaneous Local Product
Issued by NWS Hastings, NE

Home | Current Version | Previous Version | Text Only | Print | Product List | Glossary Off
Versions: 1 2 3 4 5 6 7 8 9 10 11 12 13 14 15 16 17 18 19 20 21 22 23 24 25 26 27 28 29 30 31 32 33 34 35 36 37 38 39 40 41 42 43 44 45 46 47 48 49 50

000
AXUS43 KGID 221002
MISGRI

GID CWA HOURLY WEATHER ROUNDUP
NATIONAL WEATHER SERVICE HASTINGS NE
500 AM CDT FRI MAY 22 2015

NOTE: "FAIR" INDICATES FEW OR NO CLOUDS BELOW 12,000 FEET WITH NO
SIGNIFICANT WEATHER AND/OR OBSTRUCTIONS TO VISIBILITY.

...SOUTH CENTRAL NEBRASKA...

CITY           SKY/WX    TMP DP  RH WIND       PRES   REMARKS
GRAND ISLAND   CLOUDY    46  41  82 S3        30.20S
HASTINGS       CLOUDY    46  41  82 CALM      30.19F
KEARNEY        CLOUDY    45  39  81 CALM      30.20R
ORD            PTCLDY    37  35  92 SW3       30.19R
YORK           MOCLDY    46  43  87 CALM      30.21R
AURORA         CLOUDY    45  41  86 SW3       30.20S
LEXINGTON      CLOUDY    43  41  90 SE5       30.18S
HOLDREGE       CLOUDY    44  40  85 SE5       30.19S
HEBRON         CLOUDY    45  42  91 CALM      30.22R

...NEBRASKA PANHANDLE...

CITY           SKY/WX    TMP DP  RH WIND       PRES   REMARKS
CHADRON        CLOUDY    52  43  71 S14       30.09S
ALLIANCE       CLOUDY    49  44  83 SE10      30.09F
SCOTTSBLUFF    CLOUDY    49  45  86 E7        30.08F
SIDNEY         CLOUDY    47  43  86 SE8       30.09F

...WESTERN AND NORTH CENTRAL NEBRASKA...

CITY           SKY/WX    TMP DP  RH WIND       PRES   REMARKS
VALENTINE      CLEAR     46  39  76 S10       30.16S
AINSWORTH      CLEAR     41  37  88 S7        30.17S
ONEILL         CLEAR     43  35  73 SW5       30.18S
BROKEN BOW     MOCLDY    42  39  89 NE3       30.17F
IMPERIAL       CLOUDY    48  43  82 SE8       30.12F
NORTH PLATTE   CLOUDY    44  41  89 E6        30.15F
MCCOOK         CLOUDY    48  43  82 SE8       30.15F

...EASTERN NEBRASKA...

CITY           SKY/WX    TMP DP  RH WIND       PRES   REMARKS
NORFOLK        CLEAR     43  37  79 CALM      30.19R
SO SIOUX CITY  CLEAR     46  36  68 CALM      30.19S
TEKAMAH        CLEAR     47  39  74 CALM      30.20R
COLUMBUS       PTCLDY    43  36  75 CALM      30.23S
ALBION         CLEAR     44  36  72 CALM      30.19S
OMAHA EPPLEY   PTCLDY    52  44  74 CALM      30.20R
OFFUTT AFB     CLEAR     43  41  94 NE2       30.19R
MILLARD        CLEAR     47  44  88 CALM      30.20R
LINCOLN        PTCLDY    48  42  80 CALM      30.22R
NEBRASKA CITY  PTCLDY    49  38  65 W5        30.20R
BEATRICE       MOCLDY    46  43  91 CALM      30.20S
FALLS CITY     PTCLDY    49  44  83 CALM      30.21R

...NORTHERN KANSAS...

CITY           SKY/WX    TMP DP  RH WIND       PRES   REMARKS
GOODLAND       RAIN      47  46  97 SE15      30.11F
HILL CITY      CLOUDY    49  45  86 E6        30.16F
NORTON         SUNNY     48  43  81 E5        30.16F
PHILLIPSBURG   CLEAR     48  48 100 NE5       30.18F
SMITH CENTER   CLEAR     46  45  93 E5        30.20F
HAYS           CLOUDY    50  43  76 E3        30.16F
RUSSELL        CLOUDY    50  47  89 E7        30.16F
CONCORDIA      CLOUDY    49  43  80 CALM      30.21S
SALINA         CLOUDY    50  45  83 CALM      30.21S
TOPEKA         PTCLDY    47  45  93 CALM      30.22S



USA.gov is the U.S. government's official web portal to all federal, state and local government web resources and services.